TimeCST,TemperatureF,Dew PointF,Humidity,Sea Level PressureIn,VisibilityMPH,Wind Direction,Wind SpeedMPH,Gust SpeedMPH,PrecipitationIn,Events,Conditions,WindDirDegrees,DateUTC
12:15 AM,60.8,53.6,77,29.97,10.0,SSW,16.1,23.0,N/A,,Partly Cloudy,210,2012-12-04 06:15:00
12:35 AM,60.8,51.8,72,29.97,10.0,SSW,20.7,25.3,N/A,,Clear,210,2012-12-04 06:35:00
12:55 AM,62.6,51.8,68,29.96,10.0,SSW,17.3,23.0,N/A,,Mostly Cloudy,210,2012-12-04 06:55:00
1:15 AM,60.8,51.8,72,29.97,10.0,SSW,17.3,24.2,N/A,,Mostly Cloudy,210,2012-12-04 07:15:00
1:35 AM,62.6,51.8,68,29.97,10.0,SSW,17.3,-,N/A,,Mostly Cloudy,210,2012-12-04 07:35:00
1:55 AM,60.8,51.8,72,29.97,10.0,SSW,15.0,21.9,N/A,,Mostly Cloudy,210,2012-12-04 07:55:00
2:15 AM,60.8,51.8,72,29.96,10.0,SSW,15.0,21.9,N/A,,Mostly Cloudy,210,2012-12-04 08:15:00
2:55 AM,60.8,51.8,72,29.96,10.0,SSW,16.1,-,N/A,,Mostly Cloudy,210,2012-12-04 08:55:00
3:15 AM,60.8,51.8,72,29.96,10.0,SSW,15.0,-,N/A,,Mostly Cloudy,210,2012-12-04 09:15:00
3:35 AM,60.8,51.8,72,29.96,10.0,SSW,15.0,-,N/A,,Overcast,210,2012-12-04 09:35:00
3:55 AM,60.8,51.8,72,29.96,10.0,SSW,16.1,20.7,N/A,,Mostly Cloudy,210,2012-12-04 09:55:00
4:15 AM,60.8,51.8,72,29.96,10.0,SSW,16.1,21.9,N/A,,Overcast,210,2012-12-04 10:15:00
4:35 AM,60.8,51.8,72,29.96,10.0,SW,17.3,23.0,0.01,,Overcast,220,2012-12-04 10:35:00
4:55 AM,59.0,53.6,82,29.97,10.0,SW,13.8,-,0.05,,Overcast,220,2012-12-04 10:55:00
5:15 AM,60.8,53.6,77,29.97,10.0,SW,12.7,20.7,N/A,,Overcast,220,2012-12-04 11:15:00
5:35 AM,60.8,53.6,77,29.97,10.0,SW,13.8,-,N/A,,Overcast,230,2012-12-04 11:35:00
5:55 AM,60.8,53.6,77,29.97,10.0,WSW,13.8,-,N/A,,Overcast,240,2012-12-04 11:55:00
6:15 AM,60.8,53.6,77,29.98,10.0,WSW,18.4,21.9,N/A,,Overcast,240,2012-12-04 12:15:00
6:35 AM,59.0,55.4,88,30.00,8.0,West,19.6,23.0,N/A,,Overcast,260,2012-12-04 12:35:00
6:55 AM,55.4,53.6,94,30.01,2.5,NNW,15.0,25.3,N/A,,Overcast,340,2012-12-04 12:55:00
7:15 AM,51.8,48.2,88,30.01,2.0,North,16.1,-,N/A,,Overcast,350,2012-12-04 13:15:00
7:35 AM,50.0,48.2,94,30.02,3.0,North,16.1,20.7,N/A,,Overcast,360,2012-12-04 13:35:00
7:55 AM,50.0,46.4,87,30.03,10.0,North,16.1,-,N/A,,Overcast,350,2012-12-04 13:55:00
8:15 AM,48.2,46.4,93,30.04,2.5,North,10.4,-,N/A,,Overcast,360,2012-12-04 14:15:00
8:35 AM,48.2,46.4,93,30.05,3.0,NNE,10.4,-,N/A,,Overcast,20,2012-12-04 14:35:00
8:55 AM,48.2,46.4,93,30.06,10.0,North,11.5,-,N/A,,Overcast,360,2012-12-04 14:55:00
9:15 AM,46.4,44.6,93,30.07,9.0,North,13.8,-,0.02,,Overcast,350,2012-12-04 15:15:00
9:35 AM,46.4,42.8,87,30.07,10.0,North,13.8,-,0.02,,Overcast,360,2012-12-04 15:35:00
9:55 AM,46.4,44.6,93,30.09,10.0,North,8.1,-,0.02,,Overcast,360,2012-12-04 15:55:00
10:15 AM,46.4,44.6,93,30.08,10.0,North,9.2,-,0.01,,Overcast,360,2012-12-04 16:15:00
10:35 AM,46.4,44.6,93,30.08,10.0,NNE,8.1,-,0.03,,Overcast,20,2012-12-04 16:35:00
10:55 AM,46.4,44.6,93,30.08,10.0,North,5.8,-,0.04,,Overcast,10,2012-12-04 16:55:00
11:15 AM,46.4,42.8,87,30.07,10.0,North,6.9,-,N/A,,Overcast,360,2012-12-04 17:15:00
11:35 AM,46.4,44.6,93,30.07,10.0,NNW,6.9,-,N/A,,Overcast,340,2012-12-04 17:35:00
12:15 PM,46.4,42.8,87,30.08,10.0,NW,5.8,-,N/A,,Overcast,320,2012-12-04 18:15:00
12:35 PM,48.2,42.8,82,30.08,10.0,NW,6.9,-,N/A,,Overcast,320,2012-12-04 18:35:00
12:55 PM,48.2,42.8,82,30.07,10.0,NW,6.9,-,N/A,,Overcast,320,2012-12-04 18:55:00
1:15 PM,48.2,42.8,82,30.07,10.0,NNW,8.1,-,N/A,,Overcast,330,2012-12-04 19:15:00
1:35 PM,48.2,42.8,82,30.08,10.0,NW,8.1,-,N/A,,Overcast,320,2012-12-04 19:35:00
1:55 PM,48.2,42.8,82,30.07,10.0,NW,9.2,-,N/A,,Overcast,320,2012-12-04 19:55:00
2:15 PM,50.0,42.8,76,30.08,10.0,NW,8.1,-,N/A,,Overcast,320,2012-12-04 20:15:00
2:35 PM,50.0,42.8,76,30.08,10.0,NW,8.1,-,N/A,,Overcast,310,2012-12-04 20:35:00
2:55 PM,50.0,44.6,82,30.09,10.0,NW,9.2,-,N/A,,Overcast,310,2012-12-04 20:55:00
3:15 PM,50.0,44.6,82,30.10,10.0,WNW,8.1,-,N/A,,Overcast,290,2012-12-04 21:15:00
3:35 PM,50.0,44.6,82,30.11,10.0,WNW,5.8,-,N/A,,Mostly Cloudy,290,2012-12-04 21:35:00
3:55 PM,48.2,44.6,87,30.12,10.0,WNW,6.9,-,N/A,,Scattered Clouds,290,2012-12-04 21:55:00
4:15 PM,48.2,44.6,87,30.13,10.0,West,6.9,-,N/A,,Clear,280,2012-12-04 22:15:00
4:35 PM,46.4,42.8,87,30.13,10.0,West,6.9,-,N/A,,Clear,280,2012-12-04 22:35:00
4:55 PM,46.4,42.8,87,30.14,10.0,West,8.1,-,N/A,,Clear,280,2012-12-04 22:55:00
5:15 PM,46.4,42.8,87,30.14,10.0,West,8.1,-,N/A,,Clear,270,2012-12-04 23:15:00
5:35 PM,46.4,42.8,87,30.15,10.0,West,6.9,-,N/A,,Clear,270,2012-12-04 23:35:00
5:55 PM,44.6,42.8,93,30.16,10.0,West,8.1,-,N/A,,Clear,270,2012-12-04 23:55:00
6:15 PM,44.6,41.0,87,30.16,10.0,West,9.2,-,N/A,,Clear,260,2012-12-05 00:15:00
6:35 PM,44.6,41.0,87,30.16,10.0,West,8.1,-,N/A,,Clear,270,2012-12-05 00:35:00
6:55 PM,44.6,39.2,81,30.16,10.0,West,9.2,-,N/A,,Clear,270,2012-12-05 00:55:00
7:15 PM,44.6,39.2,81,30.16,10.0,West,8.1,-,N/A,,Clear,270,2012-12-05 01:15:00
7:35 PM,42.8,37.4,81,30.17,10.0,West,9.2,-,N/A,,Clear,280,2012-12-05 01:35:00
7:55 PM,42.8,37.4,81,30.17,10.0,West,9.2,-,N/A,,Clear,280,2012-12-05 01:55:00
8:15 PM,42.8,37.4,81,30.17,10.0,West,9.2,-,N/A,,Clear,270,2012-12-05 02:15:00
8:35 PM,42.8,37.4,81,30.17,10.0,West,8.1,-,N/A,,Clear,270,2012-12-05 02:35:00
8:55 PM,42.8,37.4,81,30.18,10.0,West,10.4,-,N/A,,Clear,260,2012-12-05 02:55:00
9:15 PM,42.8,37.4,81,30.19,10.0,West,11.5,-,N/A,,Clear,270,2012-12-05 03:15:00
9:35 PM,44.6,37.4,76,30.19,10.0,West,10.4,-,N/A,,Clear,270,2012-12-05 03:35:00
9:55 PM,42.8,37.4,81,30.20,10.0,West,9.2,-,N/A,,Clear,270,2012-12-05 03:55:00
10:15 PM,42.8,37.4,81,30.20,10.0,West,9.2,-,N/A,,Clear,280,2012-12-05 04:15:00
10:35 PM,41.0,35.6,81,30.20,10.0,West,9.2,-,N/A,,Clear,270,2012-12-05 04:35:00
10:55 PM,41.0,37.4,87,30.21,10.0,West,10.4,-,N/A,,Clear,270,2012-12-05 04:55:00
11:15 PM,41.0,35.6,81,30.22,10.0,West,10.4,-,N/A,,Clear,270,2012-12-05 05:15:00
11:35 PM,41.0,35.6,81,30.22,10.0,WNW,10.4,-,N/A,,Clear,290,2012-12-05 05:35:00
11:55 PM,39.2,35.6,87,30.23,10.0,West,10.4,-,N/A,,Clear,280,2012-12-05 05:55:00